[[{"header":{"parameterUnit":"m.s-1","parameterCategory":1,"la1":30.2991,"la2":30.254,"lo1":-89.0895,"lo2":-89.0444,"dy":0.0017,"dx":0.0017,"nx":28,"ny":28,"refTime":"2024-05-09T21:00:00:Z","depth":0,"parameterNumber":2,"parameterNumberName":"U-component_of_WINDS"},"data":[0,0,0,0,0,0,0,0,0,0,0,0,0,0,0,0,0,0,0,0,0,0,0,0,0,0,0,0,0,0,0,0,0,0,0,0,0,0,0,0,0,0,0,0,0,0,0,0,0,0,0,0,0,0,0,0,0,0,-0.0149,-0.0148,0,-0.008,-0.008,-0.0079,-0.0011,-0.0011,-0.001,-0.0009,0.0061,0.0062,0.0063,0,0,0,0,0,0,0,0,0,0,0,0,0,-0.0221,-0.022,-0.0149,-0.0148,-0.0147,-0.008,-0.008,-0.0079,-0.0012,-0.0011,-0.0009,-0.0008,0.0061,0.0062,0.0063,0,0,0,0,0,0,0,0,0,0,0,0,0,-0.0175,-0.0219,-0.0149,-0.0106,-0.0101,-0.0081,-0.0079,-0.0078,-0.0012,-0.001,-0.0009,-0.0008,0.0061,0.0062,0.0064,0.0047,0,0,0.0068,0.0069,0,0,0,0,0,0,0,0,-0.0177,-0.0172,-0.0113,-0.0108,-0.0103,-0.0053,-0.0079,-0.0036,-0.0012,-0.0046,-0.0009,-0.0007,0.0022,0.0027,0.0037,0.005,0.0053,0.0069,0.007,0.007,0.0071,0,0,0,0,0,0,0,-0.0181,-0.0175,-0.0122,-0.0112,-0.0106,-0.0089,-0.0081,-0.0071,-0.002,-0.0043,-0.0038,-0.003,0.0025,0.0035,0.0039,0.0054,0.0069,0.007,0.0071,0.0071,0.0056,0.0055,0,0,0,0,0,0,-0.019,-0.0178,-0.0124,-0.012,-0.0138,-0.0089,-0.008,-0.0071,-0.002,-0.0011,-0.0032,-0.0028,0.0032,0.0037,0.0042,0.0025,0.007,0.0072,0.0073,0.0058,0.0056,0.0055,0,0,0,0,0,0,-0.0192,-0.0186,-0.0127,-0.0147,-0.0138,-0.0089,-0.0079,-0.007,-0.006,-0.0012,-0.0002,-0.0031,0.0033,0.004,0.0045,0.0028,0.0072,0.0074,0.0059,0.0057,0.0055,-0.001,0,0,0,0,0,0,-0.0195,-0.0187,-0.0193,-0.0148,-0.0138,-0.0125,-0.008,-0.007,-0.0057,-0.0051,-0.0008,0.0,0.0035,0.0042,0.0046,0.0031,0.0075,0.0061,0.0058,0.0056,-0.0006,-0.0014,-0.002,0,0,0,0,0,-0.0197,-0.0214,-0.0194,-0.0188,-0.0144,-0.0126,-0.012,-0.008,-0.0059,-0.0065,-0.0034,-0.0001,0.0029,0.0042,0.0048,0.0032,0.0062,0.0059,0.0056,-0.0003,-0.0012,-0.002,0,0,0,0,0,0,-0.0263,-0.0208,-0.0185,-0.0187,-0.0162,-0.0115,-0.0121,-0.0092,-0.0072,-0.0067,-0.0018,-0.0009,-0.001,0.0013,0.0026,0.0018,0.005,0.0048,0.0004,-0.0005,-0.0012,-0.0018,0.0076,0,0,0,0,0,-0.0278,-0.0268,-0.022,-0.0227,-0.0215,-0.0171,-0.0161,-0.0132,-0.0104,-0.0093,-0.0062,-0.0036,-0.002,-0.0011,0.0006,-0.0002,0.0008,-0.001,-0.0017,-0.0023,-0.0026,-0.0029,-0.0037,0.0045,0.0045,0.0045,0,0,-0.0309,-0.0277,-0.0274,-0.0239,-0.0216,-0.0207,-0.0162,-0.0154,-0.0147,-0.0092,-0.0085,-0.0061,-0.0029,-0.0031,-0.003,-0.0013,-0.0046,-0.0027,-0.0032,-0.0032,-0.0033,-0.0041,-0.0048,0.0043,0.0043,0.0043,0,0,-0.036,-0.0335,-0.0338,-0.0316,-0.0282,-0.0252,-0.0253,-0.021,-0.0192,-0.0184,-0.0143,-0.0133,-0.0107,-0.0086,-0.0072,-0.0115,-0.0085,-0.0111,-0.015,-0.0153,-0.016,-0.0165,-0.0182,-0.0189,-0.0113,-0.0114,-0.0114,0,-0.0403,-0.0387,-0.0344,-0.0339,-0.0325,-0.0274,-0.0278,-0.0258,-0.022,-0.0212,-0.0193,-0.016,-0.0134,-0.0131,-0.0141,-0.0131,-0.0131,-0.0116,-0.0162,-0.0168,-0.0172,-0.0187,-0.0194,-0.0117,-0.0117,-0.0116,-0.0116,0,-0.0442,-0.0432,-0.0439,-0.0404,-0.0391,-0.039,-0.0346,-0.0338,-0.031,-0.0282,-0.0275,-0.0243,-0.0219,-0.0215,-0.0188,-0.0208,-0.0198,-0.0172,-0.0139,-0.0184,-0.0198,-0.0203,-0.0122,-0.0121,-0.012,-0.0119,0,0,-0.0534,-0.0475,-0.0478,-0.0462,-0.042,-0.0412,-0.0408,-0.0385,-0.0379,-0.0354,-0.0351,-0.033,-0.0305,-0.0289,-0.0258,-0.0262,-0.0299,-0.0234,-0.0233,-0.0249,-0.0321,-0.0343,-0.035,-0.0278,-0.0279,-0.028,-0.0324,0,-0.058,-0.0572,-0.0532,-0.0535,-0.0526,-0.0477,-0.0474,-0.0449,-0.0422,-0.041,-0.038,-0.0367,-0.0334,-0.0325,-0.0325,-0.0295,-0.0313,-0.0291,-0.0276,-0.0276,-0.0287,-0.0357,-0.038,-0.0423,-0.0329,-0.033,-0.033,0,-0.0632,-0.0611,-0.0614,-0.0573,-0.0567,-0.0566,-0.0541,-0.053,-0.0499,-0.048,-0.0462,-0.0428,-0.0422,-0.039,-0.0382,-0.0367,-0.0358,-0.0342,-0.0343,-0.0341,-0.0307,-0.0359,-0.0436,-0.0443,-0.0338,-0.0337,-0.0337,0,-0.0702,-0.0673,-0.0672,-0.0659,-0.061,-0.061,-0.059,-0.0558,-0.0547,-0.0525,-0.0517,-0.0495,-0.0483,-0.0466,-0.0427,-0.0408,-0.0424,-0.0388,-0.0408,-0.0409,-0.0415,-0.0416,-0.0494,-0.0407,-0.0407,-0.0407,-0.0406,0,-0.0758,-0.0762,-0.0702,-0.0701,-0.0704,-0.0658,-0.0662,-0.0637,-0.0609,-0.0603,-0.0558,-0.0553,-0.0501,-0.049,-0.0459,-0.0457,-0.0452,-0.0437,-0.0429,-0.0442,-0.0444,-0.0437,-0.0433,-0.0408,-0.0408,-0.0408,-0.0407,0,-0.0836,-0.0796,-0.0792,-0.0746,-0.0734,-0.0739,-0.0699,-0.0697,-0.0667,-0.0659,-0.0655,-0.0608,-0.0593,-0.0552,-0.0526,-0.0505,-0.0513,-0.0496,-0.0523,-0.0519,-0.0541,-0.0541,-0.0619,-0.0627,-0.0534,-0.0535,-0.0535,0,-0.0876,-0.0878,-0.0832,-0.0825,-0.0806,-0.0795,-0.0783,-0.0737,-0.0726,-0.0692,-0.0693,-0.0674,-0.0657,-0.0635,-0.0599,-0.0579,-0.0563,-0.0592,-0.056,-0.0573,-0.0565,-0.0567,-0.0567,-0.0599,-0.0601,-0.0602,-0.0603,0,-0.0951,-0.0931,-0.0915,-0.0893,-0.088,-0.086,-0.0838,-0.0834,-0.0783,-0.0773,-0.0757,-0.0743,-0.0717,-0.0699,-0.0673,-0.0652,-0.062,-0.0613,-0.0616,-0.0631,-0.0647,-0.064,-0.0544,-0.0611,-0.0611,-0.061,-0.0609,-0.0609,-0.1012,-0.1012,-0.098,-0.0964,-0.0942,-0.0922,-0.0918,-0.0888,-0.0873,-0.0849,-0.0822,-0.0809,-0.0778,-0.074,-0.0721,-0.071,-0.0693,-0.0698,-0.07,-0.0703,-0.0709,-0.0647,-0.0705,-0.0705,-0.0705,-0.0704,-0.0704,0,-0.1086,-0.1063,-0.1049,-0.1019,-0.1007,-0.0976,-0.095,-0.0942,-0.0931,-0.0905,-0.0889,-0.087,-0.0853,-0.0815,-0.0794,-0.0793,-0.0777,-0.0789,-0.079,-0.0786,-0.0725,-0.0725,-0.0802,-0.0802,-0.0802,-0.0802,-0.0802,-0.0802,-0.1123,-0.1122,-0.1098,-0.1085,-0.1061,-0.1049,-0.1036,-0.1018,-0.0997,-0.0979,-0.0964,-0.0939,-0.0909,-0.0885,-0.0868,-0.0857,-0.0852,-0.0869,-0.0854,-0.0799,-0.079,-0.0781,-0.078,-0.0868,-0.0868,-0.0916,-0.0916,-0.0917]},{"header":{"parameterUnit":"m.s-1","parameterCategory":1,"la1":30.2991,"la2":30.254,"lo1":-89.0895,"lo2":-89.0444,"dy":0.0017,"dx":0.0017,"nx":28,"ny":28,"refTime":"2024-05-09T21:00:00:Z","depth":0,"parameterNumber":3,"parameterNumberName":"V-component_of_WINDS"},"data":[0,0,0,0,0,0,0,0,0,0,0,0,0,0,0,0,0,0,0,0,0,0,0,0,0,0,0,0,0,0,0,0,0,0,0,0,0,0,0,0,0,0,0,0,0,0,0,0,0,0,0,0,0,0,0,0,0,0,-1.0642,-1.0642,0,-1.0656,-1.0656,-1.0656,-1.0646,-1.0646,-1.0645,-1.0645,-1.0659,-1.0659,-1.066,0,0,0,0,0,0,0,0,0,0,0,0,0,-1.0607,-1.0608,-1.0642,-1.0642,-1.0642,-1.0656,-1.0656,-1.0656,-1.0646,-1.0646,-1.0645,-1.0645,-1.0658,-1.0659,-1.066,0,0,0,0,0,0,0,0,0,0,0,0,0,-1.0622,-1.0608,-1.0642,-1.0639,-1.0639,-1.0656,-1.0656,-1.0656,-1.0646,-1.0646,-1.0645,-1.0644,-1.0658,-1.0659,-1.066,-1.0681,0,0,-1.0664,-1.0665,0,0,0,0,0,0,0,0,-1.0621,-1.0623,-1.0639,-1.0639,-1.0639,-1.0649,-1.0649,-1.0665,-1.0646,-1.0643,-1.0645,-1.0644,-1.0656,-1.0657,-1.0661,-1.0682,-1.0682,-1.0664,-1.0665,-1.0665,-1.0666,0,0,0,0,0,0,0,-1.062,-1.0623,-1.0648,-1.064,-1.064,-1.0637,-1.0638,-1.0652,-1.0653,-1.0644,-1.0643,-1.0645,-1.0656,-1.066,-1.0661,-1.0682,-1.0664,-1.0665,-1.0666,-1.0666,-1.0722,-1.0723,0,0,0,0,0,0,-1.0619,-1.0622,-1.0647,-1.0648,-1.0628,-1.0638,-1.064,-1.0646,-1.0653,-1.0653,-1.0645,-1.0644,-1.0658,-1.066,-1.0662,-1.0688,-1.0665,-1.0666,-1.0667,-1.0721,-1.0722,-1.0723,0,0,0,0,0,0,-1.0619,-1.0622,-1.0647,-1.0635,-1.0638,-1.064,-1.0647,-1.0647,-1.0651,-1.0654,-1.0655,-1.065,-1.0658,-1.066,-1.0677,-1.0688,-1.0667,-1.0668,-1.072,-1.0721,-1.0723,-1.0739,0,0,0,0,0,0,-1.0618,-1.0622,-1.0629,-1.0635,-1.0638,-1.0661,-1.0648,-1.0648,-1.0653,-1.0652,-1.0658,-1.0659,-1.0658,-1.0675,-1.0678,-1.0689,-1.0669,-1.0719,-1.0721,-1.0722,-1.0738,-1.0741,-1.0743,0,0,0,0,0,-1.0617,-1.0633,-1.063,-1.0633,-1.0648,-1.0662,-1.0664,-1.0662,-1.0654,-1.0662,-1.0664,-1.0659,-1.0686,-1.0677,-1.068,-1.0692,-1.0719,-1.072,-1.0722,-1.0736,-1.074,-1.0743,0,0,0,0,0,0,-1.0628,-1.0634,-1.063,-1.0649,-1.0655,-1.066,-1.067,-1.0666,-1.0674,-1.0673,-1.067,-1.0672,-1.0689,-1.0692,-1.0682,-1.0713,-1.0701,-1.0704,-1.0711,-1.0714,-1.0717,-1.0717,-1.067,0,0,0,0,0,-1.0633,-1.0644,-1.0648,-1.0664,-1.0667,-1.0668,-1.0674,-1.0672,-1.0679,-1.0681,-1.0684,-1.069,-1.0701,-1.0707,-1.0717,-1.0737,-1.0739,-1.0747,-1.075,-1.0752,-1.0755,-1.0768,-1.0772,-1.0729,-1.0729,-1.0729,0,0,-1.0643,-1.0647,-1.0654,-1.0667,-1.0671,-1.0683,-1.067,-1.0683,-1.0692,-1.0683,-1.0699,-1.0702,-1.0708,-1.0727,-1.0736,-1.073,-1.0767,-1.0755,-1.0757,-1.0758,-1.077,-1.0774,-1.0778,-1.073,-1.073,-1.0729,0,0,-1.0668,-1.0672,-1.0686,-1.0691,-1.0698,-1.0699,-1.0703,-1.0708,-1.071,-1.0726,-1.072,-1.073,-1.0747,-1.0753,-1.0758,-1.0786,-1.0781,-1.0788,-1.0804,-1.0816,-1.082,-1.0823,-1.0834,-1.0838,-1.0791,-1.0791,-1.0791,0,-1.068,-1.0697,-1.0694,-1.0708,-1.0714,-1.0707,-1.0722,-1.0727,-1.0736,-1.0741,-1.0734,-1.0756,-1.076,-1.0781,-1.0788,-1.0792,-1.0797,-1.0789,-1.082,-1.0823,-1.0825,-1.0836,-1.084,-1.0792,-1.0792,-1.0792,-1.0791,0,-1.0712,-1.0724,-1.0735,-1.0745,-1.0752,-1.0766,-1.0766,-1.0774,-1.0771,-1.0773,-1.079,-1.0794,-1.0805,-1.081,-1.0807,-1.0831,-1.0827,-1.082,-1.0808,-1.0831,-1.0841,-1.0845,-1.0793,-1.0793,-1.0793,-1.0792,0,0,-1.0745,-1.0754,-1.0758,-1.0764,-1.0771,-1.0781,-1.0794,-1.0805,-1.0813,-1.0819,-1.0832,-1.0847,-1.0841,-1.0846,-1.0844,-1.0855,-1.0878,-1.0846,-1.0847,-1.0854,-1.0906,-1.0913,-1.0918,-1.0875,-1.0875,-1.0876,-1.0906,0,-1.0772,-1.0797,-1.0795,-1.0819,-1.083,-1.0824,-1.0836,-1.0842,-1.0844,-1.0854,-1.0856,-1.0867,-1.0857,-1.0861,-1.0871,-1.0873,-1.0889,-1.0871,-1.0887,-1.0888,-1.0888,-1.0923,-1.093,-1.0958,-1.091,-1.0911,-1.0911,0,-1.0806,-1.0815,-1.084,-1.0847,-1.0852,-1.0863,-1.0874,-1.0883,-1.089,-1.0891,-1.0897,-1.0894,-1.0908,-1.0895,-1.0916,-1.0904,-1.091,-1.0912,-1.0913,-1.0916,-1.0902,-1.0928,-1.0967,-1.0972,-1.0917,-1.0917,-1.0916,0,-1.083,-1.0848,-1.0866,-1.087,-1.0878,-1.0887,-1.089,-1.0896,-1.0904,-1.0912,-1.0917,-1.0927,-1.0933,-1.0941,-1.0941,-1.0931,-1.0963,-1.0949,-1.0964,-1.0965,-1.0973,-1.0973,-1.1015,-1.0974,-1.0974,-1.0974,-1.0974,0,-1.0861,-1.0877,-1.0877,-1.0888,-1.0906,-1.0904,-1.0922,-1.0925,-1.093,-1.0942,-1.0936,-1.0947,-1.0945,-1.0956,-1.0956,-1.0974,-1.0976,-1.0978,-1.0978,-1.0979,-1.098,-1.0985,-1.0984,-1.0975,-1.0975,-1.0974,-1.0974,0,-1.0892,-1.0892,-1.0911,-1.0918,-1.0919,-1.0933,-1.0938,-1.0949,-1.095,-1.0965,-1.0968,-1.097,-1.0983,-1.0983,-1.0997,-1.0997,-1.102,-1.1017,-1.1018,-1.1018,-1.1034,-1.1033,-1.1083,-1.109,-1.1042,-1.1043,-1.1043,0,-1.0912,-1.0925,-1.0932,-1.094,-1.0945,-1.0957,-1.0964,-1.0962,-1.097,-1.098,-1.0989,-1.1002,-1.1012,-1.1033,-1.1036,-1.1047,-1.1045,-1.1062,-1.1047,-1.1049,-1.1048,-1.1048,-1.105,-1.1065,-1.1066,-1.1066,-1.1067,0,-1.0949,-1.0949,-1.096,-1.0972,-1.0981,-1.099,-1.0998,-1.1004,-1.1003,-1.1012,-1.1026,-1.1034,-1.1049,-1.1062,-1.1073,-1.1077,-1.1072,-1.1071,-1.1076,-1.1078,-1.108,-1.1081,-1.1028,-1.107,-1.107,-1.107,-1.107,-1.1069,-1.0977,-1.0988,-1.0996,-1.1009,-1.1015,-1.1023,-1.1034,-1.1036,-1.1047,-1.106,-1.1058,-1.1074,-1.1081,-1.1095,-1.11,-1.1112,-1.1107,-1.1113,-1.1114,-1.1117,-1.1119,-1.1076,-1.1114,-1.1114,-1.1114,-1.1114,-1.1114,0,-1.1016,-1.102,-1.1032,-1.1044,-1.1054,-1.1048,-1.1057,-1.1066,-1.108,-1.1087,-1.1097,-1.1114,-1.1126,-1.113,-1.1142,-1.1151,-1.115,-1.1155,-1.1155,-1.1156,-1.1123,-1.1119,-1.1156,-1.1156,-1.1156,-1.1156,-1.1156,-1.1156,-1.1037,-1.1057,-1.1057,-1.108,-1.1084,-1.11,-1.1106,-1.1113,-1.1119,-1.1137,-1.1148,-1.115,-1.1156,-1.1169,-1.1181,-1.1181,-1.1187,-1.1194,-1.1194,-1.1163,-1.1159,-1.1155,-1.1151,-1.1194,-1.1194,-1.1227,-1.1227,-1.1227]}]]